This demonstration page uses our WeatherBlox Daily Observations layout. Learn more.

Left ArrowRight Arrow

36.19886, -115.1175

Hourly Observations for August 24, 2017

Temp ( °F °C ) Dew Point ( °F °C ) Humidity (%) Winds ( mph kmh ) Pressure ( in mb ) Visibility ( mi km ) Precip ( " mm )
12:53 am 00:53 Clear 83 28.3 48 8.9 30 30 N N/A 29.82 1010 10 16 N/A
1:53 am 01:53 Clear 81 27.2 48 8.9 32 32 NE 3 6 29.82 1010 10 16 N/A
2:53 am 02:53 Clear 81 27.2 49 9.4 33 33 W 6 9 29.83 1010 10 16 N/A
3:53 am 03:53 Partly Cloudy 79 26.1 49 9.4 35 35 N 5 7 29.83 1010 10 16 N/A
4:53 am 04:53 Mostly Clear 80 26.7 47 8.3 31 31 SE 6 9 29.84 1010 10 16 N/A
5:53 am 05:53 Cloudy with Light Rain 78 25.6 58 14.4 50 50 SSE 15 24 29.90 1013 10 16 N/A
6:53 am 06:53 Cloudy with Rain 73 22.8 64 17.8 74 74 NNW 10 17 29.98 1015 7 11 0.05 1.27
7:53 am 07:53 Mostly Cloudy with Light Rain 72 22.2 66 18.9 82 82 N 3 6 29.96 1015 10 16 0.07 1.78
8:53 am 08:53 Sunny 79 26.1 64 17.8 60 60 SSE 10 17 29.96 1015 10 16 N/A
9:53 am 09:53 Sunny 79 26.1 62 16.7 56 56 SSE 12 19 29.99 1016 10 16 N/A
10:53 am 10:53 Sunny 78 25.6 61 16.1 56 56 N N/A 29.99 1016 10 16 N/A
11:53 am 11:53 Sunny 78 25.6 64 17.8 62 62 ENE 8 13 29.97 1015 10 16 N/A
12:53 pm 12:53 Sunny 81 27.2 62 16.7 53 53 ESE 7 11 29.93 1014 10 16 N/A
1:53 pm 13:53 Sunny 85 29.4 61 16.1 45 45 VRB 3 6 29.89 1012 10 16 N/A
2:53 pm 14:53 Sunny 87 30.6 59 15 39 39 SSE 6 9 29.85 1011 10 16 N/A
3:53 pm 15:53 Sunny 89 31.7 58 14.4 35 35 undefined N/A 29.82 1010 10 16 N/A
4:53 pm 16:53 Sunny 90 32.2 51 10.6 26 26 ESE 6 9 29.79 1009 10 16 N/A
5:53 pm 17:53 Sunny 91 32.8 52 11.1 26 26 SE 6 9 29.78 1008 10 16 N/A
6:53 pm 18:53 Sunny 88 31.1 55 12.8 33 33 E 5 7 29.79 1009 10 16 N/A
7:53 pm 19:53 Clear 87 30.6 56 13.3 35 35 ESE 3 6 29.80 1009 10 16 N/A
8:53 pm 20:53 Clear 86 30 55 12.8 35 35 N N/A 29.80 1009 10 16 N/A
9:53 pm 21:53 Clear 84 28.9 58 14.4 41 41 N N/A 29.81 1010 10 16 N/A
10:53 pm 22:53 Clear 83 28.3 58 14.4 43 43 NW 6 9 29.81 1010 10 16 N/A
11:53 pm 23:53 Clear 80 26.7 58 14.4 47 47 NNW 5 7 29.82 1010 10 16 N/A

Powered by AerisWeather